Weather History for Elizabethton, TN

Change the Weather History Date:

Thursday, April 3, 2014

  Actual Average (KTRI) Record (KTRI)
Temperature  
Mean Temperature 63 °F 52 °F  
Max Temperature 78 °F 65 °F 82 °F (1963)
Min Temperature 48 °F 39 °F 22 °F (1992)
Degree Days  
Heating Degree Days 2 13  
Month to date heating degree days 41  
Since 1 July heating degree days 3991  
Cooling Degree Days 0 0  
Month to date cooling degree days 0  
Year to date cooling degree days 1  
Growing Degree Days 13 (Base 50)    
Moisture  
Dew Point 53 °F    
Average Humidity 77    
Maximum Humidity 100    
Minimum Humidity 44    
Precipitation  
Precipitation 0.00 in 0.11 in 1.33 in (2012)
Month to date precipitation 0.33  
Year to date precipitation 10.59  
Snow  
Snow 0.00 in 0.00 in - ()
Month to date snowfall 0.1  
Since 1 July snowfall 12.3  
Snow Depth -    
Sea Level Pressure  
Sea Level Pressure 30.00 in    
Wind  
Wind Speed 1 mph (NNW)    
Max Wind Speed 10 mph    
Max Gust Speed -    
Visibility 9 miles    
Events Rain    
T = Trace of Precipitation, MM = Missing Value Source: NWS Daily Summary

Daily Weather History Graph

Daily Weather History Graph

Search for Another Location

Airport:

Trip Planner

Search our weather history database for the weather conditions in past years. The results will help you decide how hot, cold, wet, or windy it might be!

Date:

Astronomy

Apr. 03, 2014 Rise Set
Actual Time 7:11 AM EDT 7:52 PM EDT
Civil Twilight 6:45 AM EDT 8:18 PM EDT
Nautical Twilight 6:15 AM EDT 8:49 PM EDT
Astronomical Twilight 5:43 AM EDT 9:20 PM EDT
Moon 9:45 AM EDT (4/3) No Moon Set
Length of Visible Light 13h 32m
Length of Day
12h 40m
Waxing Crescent, 17% of the Moon is Illuminated
Apr 3
Waxing Crescent
Apr 7
First Quarter
Apr 15
Full
Apr 22
Last Quarter
Apr 29
New

Hourly Weather History & Observations

Time (EDT) Temp. Dew Point Humidity Pressure Visibility Wind Dir Wind Speed Gust Speed Precip Events Conditions
12:15 AM 53.6 °F 46.4 °F 77% 30.07 in 10.0 mi Calm Calm - N/A   Clear
12:35 AM 51.8 °F 46.4 °F 82% 30.08 in 10.0 mi Calm Calm - N/A   Partly Cloudy
12:55 AM 51.8 °F 46.4 °F 82% 30.08 in 10.0 mi Calm Calm - N/A   Scattered Clouds
1:15 AM 51.8 °F 44.6 °F 76% 30.08 in 10.0 mi Calm Calm - N/A   Clear
1:35 AM 50.0 °F 44.6 °F 82% 30.07 in 10.0 mi Calm Calm - N/A   Clear
1:55 AM 48.2 °F 44.6 °F 87% 30.06 in 10.0 mi Calm Calm - N/A   Clear
2:15 AM 50.0 °F 44.6 °F 82% 30.05 in 10.0 mi Calm Calm - N/A   Clear
2:35 AM 50.0 °F 46.4 °F 87% 30.05 in 10.0 mi Calm Calm - N/A   Clear
2:55 AM 51.8 °F 44.6 °F 76% 30.05 in 10.0 mi Calm Calm - N/A   Clear
3:15 AM 51.8 °F 46.4 °F 82% 30.05 in 10.0 mi Calm Calm - N/A   Clear
3:35 AM 51.8 °F 46.4 °F 82% 30.05 in 10.0 mi Calm Calm - N/A   Clear
3:55 AM 51.8 °F 46.4 °F 82% 30.05 in 10.0 mi Calm Calm - N/A   Clear
4:15 AM 51.8 °F 44.6 °F 76% 30.05 in 10.0 mi Calm Calm - N/A   Clear
4:35 AM 51.8 °F 46.4 °F 82% 30.05 in 10.0 mi Calm Calm - N/A   Clear
4:55 AM 51.8 °F 44.6 °F 76% 30.06 in 10.0 mi Calm Calm - N/A   Mostly Cloudy
5:15 AM 51.8 °F 46.4 °F 82% 30.06 in 10.0 mi Calm Calm - N/A   Light Drizzle
5:35 AM 53.6 °F 46.4 °F 77% 30.06 in 10.0 mi Calm Calm - N/A   Overcast
5:55 AM 53.6 °F 48.2 °F 82% 30.06 in 10.0 mi Calm Calm - N/A   Overcast
6:15 AM 53.6 °F 48.2 °F 82% 30.07 in 10.0 mi Calm Calm - N/A Rain Light Rain
6:35 AM 53.6 °F 50.0 °F 88% 30.10 in 6.0 mi Calm Calm - N/A Rain Rain
6:55 AM 51.8 °F 50.0 °F 94% 30.11 in 5.0 mi Calm Calm - N/A Rain Rain
7:15 AM 51.8 °F 50.0 °F 94% 30.12 in 9.0 mi Calm Calm - N/A Rain Rain
7:35 AM 51.8 °F 51.8 °F 100% 30.13 in 6.0 mi Calm Calm - N/A Rain Heavy Rain
7:55 AM 51.8 °F 51.8 °F 100% 30.12 in 4.0 mi Calm Calm - N/A Rain Heavy Rain
8:15 AM 51.8 °F 51.8 °F 100% 30.12 in 5.0 mi Calm Calm - N/A Rain Rain
8:35 AM 53.6 °F 51.8 °F 94% 30.08 in 4.0 mi Calm Calm - N/A Rain Rain
8:55 AM 53.6 °F 53.6 °F 100% 30.07 in 10.0 mi Calm Calm - N/A   Light Drizzle
9:15 AM 53.6 °F 53.6 °F 100% 30.08 in 10.0 mi Calm Calm - N/A   Overcast
9:35 AM 53.6 °F 53.6 °F 100% 30.07 in 8.0 mi Calm Calm - N/A   Overcast
9:55 AM 55.4 °F 55.4 °F 100% 30.08 in 9.0 mi Calm Calm - N/A   Mostly Cloudy
10:15 AM 55.4 °F 55.4 °F 100% 30.10 in 7.0 mi Calm Calm - N/A Rain Light Rain
10:35 AM 55.4 °F 55.4 °F 100% 30.08 in 5.0 mi ESE 8.1 mph - N/A Rain Light Rain
10:55 AM 55.4 °F 55.4 °F 100% 30.05 in 4.0 mi ENE 5.8 mph - N/A Rain Heavy Rain
11:15 AM 57.2 °F 57.2 °F 100% 30.03 in 10.0 mi Calm Calm - N/A   Scattered Clouds
11:35 AM 60.8 °F 59.0 °F 94% 30.02 in 10.0 mi ESE 6.9 mph - N/A   Partly Cloudy
11:55 AM 62.6 °F 59.0 °F 88% 30.01 in 10.0 mi East 6.9 mph - N/A   Clear
12:15 PM 64.4 °F 57.2 °F 77% 29.99 in 10.0 mi East 8.1 mph - N/A   Clear
12:35 PM 66.2 °F 57.2 °F 73% 29.98 in 10.0 mi Calm Calm - N/A   Clear
12:55 PM 69.8 °F 55.4 °F 60% 29.98 in 10.0 mi Calm Calm - N/A   Clear
1:15 PM 71.6 °F 55.4 °F 57% 29.96 in 10.0 mi Calm Calm - N/A   Clear
1:35 PM 71.6 °F 55.4 °F 57% 29.95 in 10.0 mi Calm Calm - N/A   Clear
1:55 PM 73.4 °F 57.2 °F 57% 29.94 in 10.0 mi Calm Calm - N/A   Clear
2:15 PM 73.4 °F 57.2 °F 57% 29.93 in 10.0 mi Calm Calm - N/A   Clear
2:35 PM 75.2 °F 59.0 °F 57% 29.92 in 10.0 mi Variable 3.5 mph - N/A   Clear
2:55 PM 78.8 °F 57.2 °F 47% 29.91 in 10.0 mi Calm Calm - N/A   Clear
3:15 PM 78.8 °F 55.4 °F 44% 29.90 in 10.0 mi Calm Calm - N/A   Clear
3:35 PM 78.8 °F 59.0 °F 51% 29.90 in 10.0 mi WNW 9.2 mph - N/A   Clear
3:55 PM 77.0 °F 60.8 °F 57% 29.90 in 10.0 mi NW 6.9 mph - N/A   Clear
4:15 PM 77.0 °F 57.2 °F 50% 29.90 in 10.0 mi West 10.4 mph - N/A   Clear
4:35 PM 77.0 °F 55.4 °F 47% 29.89 in 10.0 mi WSW 6.9 mph - N/A   Clear
4:55 PM 75.2 °F 57.2 °F 53% 29.88 in 10.0 mi WNW 10.4 mph - N/A   Clear
5:15 PM 75.2 °F 57.2 °F 53% 29.89 in 10.0 mi WNW 8.1 mph - N/A   Clear
5:35 PM 75.2 °F 57.2 °F 53% 29.89 in 10.0 mi Calm Calm - N/A   Clear
5:55 PM 75.2 °F 57.2 °F 53% 29.89 in 10.0 mi Calm Calm - N/A   Clear
6:15 PM 75.2 °F 57.2 °F 53% 29.89 in 10.0 mi Calm Calm - N/A   Clear
6:35 PM 75.2 °F 57.2 °F 53% 29.88 in 10.0 mi Calm Calm - N/A   Clear
6:55 PM 75.2 °F 57.2 °F 53% 29.88 in 10.0 mi Calm Calm - N/A   Clear
7:15 PM 73.4 °F 57.2 °F 57% 29.89 in 10.0 mi Calm Calm - N/A   Clear
7:35 PM 68.0 °F 59.0 °F 73% 29.89 in 10.0 mi Calm Calm - N/A   Clear
7:55 PM 66.2 °F 57.2 °F 73% 29.89 in 10.0 mi Calm Calm - N/A   Clear
8:15 PM 62.6 °F 57.2 °F 82% 29.90 in 10.0 mi Calm Calm - N/A   Clear
8:35 PM 62.6 °F 57.2 °F 82% 29.91 in 10.0 mi Calm Calm - N/A   Clear
8:55 PM 62.6 °F 55.4 °F 77% 29.92 in 10.0 mi Calm Calm - N/A   Clear
9:15 PM 60.8 °F 55.4 °F 82% 29.92 in 10.0 mi Calm Calm - N/A   Mostly Cloudy
9:35 PM 62.6 °F 57.2 °F 82% 29.93 in 10.0 mi Calm Calm - N/A   Overcast
9:55 PM 60.8 °F 57.2 °F 88% 29.92 in 6.0 mi Calm Calm - N/A   Mostly Cloudy
10:15 PM 62.6 °F 57.2 °F 82% 29.93 in 10.0 mi Calm Calm - N/A   Mostly Cloudy
10:35 PM 62.6 °F 57.2 °F 82% 29.93 in 10.0 mi Calm Calm - N/A   Overcast
11:55 PM 60.8 °F 57.2 °F 88% 29.94 in 10.0 mi Calm Calm - N/A   Overcast